�������l�o���
Date,Time,MP-1(��Sv/h),MP-2(��Sv/h),MP-3(��Sv/h),MP-4(��Sv/h),MP-5(��Sv/h),MP-6(��Sv/h),MP-7(��Sv/h),MP-8(��Sv/h),����,����(m/s),���J
2020/05/19,00:00,0.697,0.991,0.657,1.220,0.869,0.400,0.695,0.651,�k,3.6,�L
2020/05/19,00:10,0.697,0.990,0.656,1.222,0.868,0.400,0.693,0.650,�k,3.6,�L
2020/05/19,00:20,0.694,0.988,0.656,1.221,0.867,0.400,0.694,0.651,�k�k��,4.5,�L
2020/05/19,00:30,0.697,0.991,0.657,1.218,0.867,0.399,0.695,0.651,�k�k��,4.1,�L
2020/05/19,00:40,0.697,0.989,0.657,1.220,0.868,0.397,0.695,0.652,�k�k��,4.8,�L
2020/05/19,00:50,0.696,0.987,0.657,1.220,0.868,0.398,0.692,0.651,�k�k��,5.0,�L
2020/05/19,01:00,0.695,0.989,0.657,1.220,0.865,0.400,0.693,0.653,�k�k��,4.6,�L
2020/05/19,01:10,0.696,0.987,0.656,1.218,0.868,0.398,0.692,0.652,�k�k��,4.7,�L
2020/05/19,01:20,0.696,0.987,0.656,1.216,0.864,0.398,0.692,0.652,�k�k��,4.5,�L
2020/05/19,01:30,0.696,0.988,0.657,1.214,0.866,0.398,0.693,0.650,�k�k��,5.0,�L
2020/05/19,01:40,0.696,0.988,0.654,1.213,0.866,0.398,0.693,0.650,�k�k��,4.9,�L
2020/05/19,01:50,0.696,0.985,0.654,1.209,0.860,0.399,0.690,0.649,�k�k��,4.6,�L
2020/05/19,02:00,0.693,0.979,0.652,1.205,0.858,0.398,0.688,0.649,�k�k��,4.6,�L
2020/05/19,02:10,0.692,0.976,0.652,1.204,0.854,0.396,0.688,0.646,�k��,4.0,�L
2020/05/19,02:20,0.687,0.970,0.651,1.198,0.852,0.396,0.687,0.646,�k�k��,5.0,�L
2020/05/19,02:30,0.688,0.972,0.652,1.200,0.855,0.396,0.688,0.648,�k�k��,5.5,�L
2020/05/19,02:40,0.690,0.972,0.649,1.201,0.854,0.396,0.687,0.646,�k�k��,6.0,�L
2020/05/19,02:50,0.689,0.971,0.651,1.200,0.852,0.394,0.688,0.647,�k�k��,5.6,�L
2020/05/19,03:00,0.688,0.973,0.650,1.201,0.854,0.395,0.687,0.647,�k�k��,5.2,�L
2020/05/19,03:10,0.689,0.972,0.649,1.197,0.853,0.396,0.686,0.646,�k�k��,6.2,�L
2020/05/19,03:20,0.687,0.974,0.650,1.197,0.852,0.396,0.687,0.647,�k,6.4,�L
2020/05/19,03:30,0.688,0.970,0.648,1.194,0.852,0.394,0.687,0.645,�k�k��,5.6,�L
2020/05/19,03:40,0.685,0.968,0.649,1.195,0.847,0.393,0.687,0.647,�k�k��,7.1,�L
2020/05/19,03:50,0.687,0.966,0.646,1.195,0.846,0.393,0.687,0.645,�k�k��,6.6,�L
2020/05/19,04:00,0.685,0.964,0.646,1.191,0.846,0.393,0.685,0.646,�k�k��,6.1,�L
2020/05/19,04:10,0.685,0.965,0.646,1.191,0.844,0.392,0.684,0.647,�k�k��,7.4,�L
2020/05/19,04:20,0.684,0.961,0.643,1.190,0.844,0.392,0.683,0.643,�k�k��,5.7,�L
2020/05/19,04:30,0.681,0.959,0.642,1.185,0.841,0.391,0.682,0.644,�k�k��,4.4,�L
2020/05/19,04:40,0.679,0.957,0.642,1.182,0.841,0.391,0.681,0.642,�k�k��,5.3,�L
2020/05/19,04:50,0.679,0.959,0.644,1.185,0.841,0.391,0.681,0.643,�k,5.6,�L
2020/05/19,05:00,0.681,0.957,0.641,1.185,0.841,0.393,0.681,0.644,�k,6.3,�L
2020/05/19,05:10,0.682,0.956,0.643,1.184,0.839,0.393,0.681,0.641,�k,5.8,�L
2020/05/19,05:20,0.680,0.957,0.642,1.184,0.841,0.393,0.680,0.644,�k,5.7,�L
2020/05/19,05:30,0.681,0.960,0.641,1.184,0.839,0.393,0.681,0.642,�k,5.6,�L
2020/05/19,05:40,0.682,0.956,0.641,1.183,0.835,0.392,0.679,0.644,�k,5.1,�L
2020/05/19,05:50,0.679,0.959,0.641,1.182,0.836,0.391,0.681,0.641,�k�k��,5.5,�L
2020/05/19,06:00,0.678,0.958,0.642,1.182,0.837,0.392,0.680,0.643,�k�k��,5.6,�L
2020/05/19,06:10,0.681,0.959,0.643,1.183,0.836,0.391,0.679,0.643,�k�k��,5.7,�L
2020/05/19,06:20,0.680,0.959,0.640,1.182,0.837,0.392,0.679,0.643,�k�k��,5.4,�L
2020/05/19,06:30,0.680,0.959,0.640,1.183,0.839,0.391,0.680,0.643,�k�k��,6.2,�L
2020/05/19,06:40,0.680,0.957,0.639,1.182,0.836,0.394,0.679,0.643,�k�k��,6.6,�L
2020/05/19,06:50,0.679,0.957,0.639,1.182,0.835,0.392,0.678,0.643,�k�k��,6.9,�L
2020/05/19,07:00,0.678,0.954,0.640,1.179,0.832,0.393,0.677,0.642,�k�k��,5.7,�L
2020/05/19,07:10,0.677,0.952,0.640,1.176,0.832,0.390,0.678,0.640,�k�k��,5.4,�L
2020/05/19,07:20,0.678,0.951,0.640,1.174,0.831,0.392,0.678,0.641,�k�k��,6.7,�L
2020/05/19,07:30,0.680,0.951,0.639,1.174,0.832,0.392,0.679,0.641,�k,6.7,�L
2020/05/19,07:40,0.678,0.950,0.637,1.173,0.830,0.391,0.678,0.641,�k�k��,7.0,�L
2020/05/19,07:50,0.679,0.952,0.640,1.175,0.832,0.390,0.677,0.641,�k�k��,7.3,�L
2020/05/19,08:00,0.679,0.949,0.639,1.176,0.830,0.391,0.679,0.642,�k,7.7,�L
2020/05/19,08:10,0.678,0.950,0.639,1.175,0.831,0.391,0.679,0.642,�k�k��,7.2,�L
2020/05/19,08:20,0.678,0.951,0.641,1.177,0.831,0.392,0.678,0.641,�k,8.1,�L
2020/05/19,08:30,0.678,0.948,0.640,1.174,0.831,0.390,0.676,0.642,�k�k��,8.5,�L
2020/05/19,08:40,0.676,0.947,0.637,1.173,0.830,0.391,0.677,0.641,�k,7.8,�L
2020/05/19,08:50,0.677,0.947,0.639,1.176,0.831,0.391,0.680,0.641,�k,7.1,�L
2020/05/19,09:00,0.678,0.947,0.638,1.175,0.830,0.390,0.676,0.641,�k�k��,7.7,�L
2020/05/19,09:10,0.679,0.946,0.637,1.174,0.828,0.389,0.678,0.639,�k�k��,7.9,�L
2020/05/19,09:20,0.674,0.941,0.637,1.173,0.828,0.392,0.676,0.639,�k�k��,8.8,�L
2020/05/19,09:30,0.677,0.941,0.637,1.168,0.825,0.389,0.677,0.639,�k�k��,8.7,�L
2020/05/19,09:40,0.675,0.938,0.636,1.168,0.827,0.392,0.675,0.641,�k�k��,8.4,�L
2020/05/19,09:50,0.677,0.939,0.637,1.169,0.826,0.391,0.675,0.641,�k�k��,7.8,�L
2020/05/19,10:00,0.676,0.940,0.637,1.168,0.824,0.391,0.677,0.641,�k�k��,8.2,�L
2020/05/19,10:10,0.674,0.941,0.637,1.166,0.824,0.392,0.675,0.640,�k�k��,7.0,�L
2020/05/19,10:20,0.675,0.935,0.635,1.165,0.823,0.390,0.675,0.637,�k�k��,6.7,�L
2020/05/19,10:30,0.673,0.937,0.635,1.164,0.817,0.392,0.673,0.639,�k,7.7,�L
2020/05/19,10:40,0.674,0.935,0.637,1.163,0.817,0.390,0.675,0.637,�k�k��,6.6,�L
2020/05/19,10:50,0.671,0.935,0.634,1.162,0.820,0.389,0.672,0.638,�k�k��,7.1,�L
2020/05/19,11:00,0.673,0.938,0.637,1.163,0.818,0.390,0.673,0.639,�k�k��,7.3,�L
2020/05/19,11:10,0.672,0.937,0.633,1.162,0.815,0.390,0.673,0.636,�k,6.4,�L
2020/05/19,11:20,0.674,0.936,0.634,1.162,0.815,0.391,0.673,0.637,�k�k��,4.9,�L
2020/05/19,11:30,0.672,0.938,0.633,1.162,0.817,0.391,0.674,0.637,�k�k��,5.8,�L
2020/05/19,11:40,0.670,0.935,0.632,1.160,0.812,0.388,0.671,0.636,�k�k��,5.9,�L
2020/05/19,11:50,0.672,0.937,0.633,1.159,0.811,0.386,0.671,0.637,�k�k��,5.1,�L
2020/05/19,12:00,0.674,0.936,0.634,1.161,0.813,0.389,0.673,0.637,�k��,4.6,�L
2020/05/19,12:10,0.675,0.942,0.635,1.165,0.817,0.390,0.675,0.638,�k�k��,4.8,�L
2020/05/19,12:20,0.676,0.945,0.634,1.167,0.819,0.390,0.675,0.637,�k,5.3,�L
2020/05/19,12:30,0.677,0.945,0.636,1.169,0.817,0.390,0.674,0.639,�k,4.0,�L
2020/05/19,12:40,0.673,0.944,0.633,1.167,0.817,0.392,0.674,0.638,�k�k��,3.5,�L
2020/05/19,12:50,0.672,0.938,0.634,1.164,0.814,0.391,0.671,0.639,�k�k��,3.9,�L
2020/05/19,13:00,0.672,0.934,0.634,1.164,0.817,0.392,0.673,0.638,�k,3.7,�L
2020/05/19,13:10,0.671,0.937,0.635,1.165,0.817,0.390,0.675,0.639,�k�k��,5.5,�L
2020/05/19,13:20,0.673,0.935,0.634,1.163,0.816,0.393,0.674,0.638,�k�k��,5.3,�L
2020/05/19,13:30,0.672,0.927,0.634,1.155,0.809,0.388,0.669,0.637,�k�k��,6.1,�L
2020/05/19,13:40,0.670,0.931,0.632,1.153,0.808,0.389,0.671,0.638,�k�k��,10.3,�L
2020/05/19,13:50,0.673,0.935,0.633,1.156,0.810,0.391,0.674,0.638,�k�k��,8.7,�L
2020/05/19,14:00,0.671,0.933,0.633,1.159,0.811,0.390,0.672,0.636,�k�k��,9.0,�L
2020/05/19,14:10,0.671,0.932,0.632,1.159,0.811,0.390,0.671,0.636,�k�k��,8.6,�L
2020/05/19,14:20,0.668,0.933,0.632,1.153,0.808,0.389,0.671,0.635,�k�k��,9.8,�L
2020/05/19,14:30,0.672,0.935,0.633,1.158,0.806,0.389,0.668,0.636,�k�k��,9.5,�L
2020/05/19,14:40,0.671,0.933,0.632,1.158,0.808,0.389,0.669,0.637,�k�k��,9.2,�L
2020/05/19,14:50,0.670,0.932,0.632,1.155,0.807,0.391,0.671,0.636,�k�k��,9.6,�L
2020/05/19,15:00,0.670,0.930,0.631,1.155,0.805,0.390,0.671,0.637,�k�k��,9.5,�L
2020/05/19,15:10,0.667,0.928,0.628,1.145,0.801,0.388,0.669,0.636,�k�k��,9.1,�L
2020/05/19,15:20,0.667,0.927,0.631,1.150,0.804,0.388,0.669,0.634,�k�k��,9.8,�L
2020/05/19,15:30,0.669,0.931,0.631,1.150,0.802,0.389,0.669,0.636,�k�k��,9.0,�L
2020/05/19,15:40,0.667,0.927,0.628,1.145,0.800,0.387,0.668,0.633,�k�k��,6.3,�L
2020/05/19,15:50,0.669,0.931,0.628,1.147,0.800,0.390,0.667,0.634,�k�k��,8.0,�L
2020/05/19,16:00,0.666,0.927,0.628,1.144,0.800,0.387,0.668,0.633,�k,9.6,�L
2020/05/19,16:10,0.665,0.926,0.626,1.144,0.797,0.389,0.667,0.633,�k�k��,10.2,�L
2020/05/19,16:20,0.669,0.929,0.628,1.145,0.798,0.390,0.667,0.633,�k�k��,10.8,�L
2020/05/19,16:30,0.663,0.921,0.625,1.138,0.791,0.388,0.666,0.632,�k�k��,9.9,�L
2020/05/19,16:40,0.664,0.920,0.625,1.137,0.790,0.388,0.666,0.630,�k�k��,9.2,�L
2020/05/19,16:50,0.666,0.925,0.624,1.137,0.788,0.388,0.665,0.631,�k�k��,10.2,�L
2020/05/19,17:00,0.669,0.928,0.628,1.141,0.791,0.390,0.666,0.633,�k�k��,11.7,�L
2020/05/19,17:10,0.675,0.934,0.628,1.146,0.796,0.391,0.668,0.634,�k�k��,8.1,�L
2020/05/19,17:20,0.674,0.937,0.627,1.148,0.792,0.391,0.668,0.635,�k�k��,6.9,�L
2020/05/19,17:30,0.674,0.937,0.628,1.147,0.795,0.390,0.668,0.635,�k�k��,8.1,�L
2020/05/19,17:40,0.674,0.938,0.629,1.151,0.797,0.389,0.669,0.636,�k,7.7,�L
2020/05/19,17:50,0.672,0.942,0.629,1.151,0.797,0.390,0.669,0.637,�k,7.8,�L
2020/05/19,18:00,0.672,0.943,0.630,1.152,0.798,0.389,0.669,0.636,�k,6.8,�L
2020/05/19,18:10,0.672,0.944,0.629,1.154,0.802,0.389,0.669,0.638,�k,7.8,�L
2020/05/19,18:20,0.672,0.947,0.628,1.157,0.800,0.389,0.669,0.637,�k,9.3,�L
2020/05/19,18:30,0.671,0.946,0.628,1.157,0.801,0.388,0.672,0.638,�k,9.0,�L
2020/05/19,18:40,0.672,0.945,0.628,1.157,0.801,0.388,0.670,0.638,�k�k��,10.2,�L
2020/05/19,18:50,0.671,0.947,0.626,1.161,0.803,0.388,0.670,0.639,�k�k��,10.5,�L
2020/05/19,19:00,0.672,0.946,0.627,1.159,0.806,0.388,0.668,0.638,�k�k��,11.4,�L
2020/05/19,19:10,0.671,0.949,0.629,1.159,0.805,0.388,0.670,0.638,�k�k��,11.4,�L
2020/05/19,19:20,0.672,0.948,0.628,1.162,0.804,0.386,0.672,0.638,�k�k��,12.0,�L
2020/05/19,19:30,0.671,0.947,0.629,1.162,0.805,0.387,0.671,0.637,�k�k��,11.6,�L
2020/05/19,19:40,0.670,0.948,0.628,1.163,0.806,0.389,0.671,0.639,�k�k��,11.1,�L
2020/05/19,19:50,0.672,0.949,0.627,1.165,0.805,0.389,0.670,0.638,�k�k��,11.6,�L
2020/05/19,20:00,0.669,0.947,0.628,1.166,0.806,0.388,0.670,0.636,�k�k��,9.9,�L
2020/05/19,20:10,0.672,0.943,0.626,1.159,0.804,0.388,0.669,0.635,�k,10.5,�L
2020/05/19,20:20,0.671,0.942,0.625,1.154,0.795,0.386,0.667,0.634,�k�k��,10.5,�L
2020/05/19,20:30,0.667,0.935,0.624,1.148,0.795,0.387,0.667,0.632,�k,11.3,�L
2020/05/19,20:40,0.665,0.934,0.625,1.145,0.790,0.387,0.666,0.632,�k,9.3,�L
2020/05/19,20:50,0.666,0.930,0.625,1.144,0.790,0.387,0.667,0.632,�k�k��,10.2,�L
2020/05/19,21:00,0.662,0.927,0.625,1.140,0.786,0.386,0.666,0.630,�k�k��,9.5,�L
2020/05/19,21:10,0.662,0.922,0.622,1.137,0.784,0.386,0.663,0.630,�k�k��,9.3,�L
2020/05/19,21:20,0.661,0.917,0.620,1.133,0.780,0.387,0.662,0.629,�k,8.4,�L
2020/05/19,21:30,0.661,0.917,0.621,1.131,0.781,0.387,0.661,0.628,�k,11.3,�L
2020/05/19,21:40,0.657,0.917,0.619,1.131,0.779,0.387,0.662,0.630,�k,10.5,�L
2020/05/19,21:50,0.659,0.918,0.619,1.131,0.777,0.388,0.661,0.630,�k�k��,11.6,�L
2020/05/19,22:00,0.659,0.921,0.617,1.133,0.778,0.387,0.662,0.630,�k,12.8,�L
2020/05/19,22:10,0.661,0.923,0.619,1.133,0.779,0.386,0.662,0.632,�k,12.5,�L
2020/05/19,22:20,0.663,0.925,0.617,1.134,0.775,0.388,0.663,0.631,�k,13.5,�L
2020/05/19,22:30,0.663,0.922,0.614,1.133,0.777,0.388,0.663,0.631,�k,12.1,�L
2020/05/19,22:40,0.661,0.924,0.614,1.130,0.776,0.388,0.663,0.632,�k,12.0,�L
2020/05/19,22:50,0.659,0.923,0.614,1.131,0.775,0.387,0.663,0.630,�k�k��,10.2,�L
2020/05/19,23:00,0.662,0.921,0.612,1.130,0.775,0.386,0.662,0.631,�k�k��,11.0,�L
2020/05/19,23:10,0.661,0.922,0.615,1.131,0.775,0.386,0.662,0.631,�k�k��,11.1,�L
2020/05/19,23:20,0.662,0.925,0.613,1.134,0.774,0.387,0.662,0.630,�k,12.8,�L
2020/05/19,23:30,0.660,0.924,0.613,1.132,0.773,0.386,0.661,0.631,�k,12.0,�L
2020/05/19,23:40,0.659,0.923,0.611,1.129,0.772,0.387,0.662,0.630,�k�k��,11.1,�L
2020/05/19,23:50,0.661,0.924,0.613,1.129,0.772,0.386,0.662,0.633,�k,11.9,�L
